Change the Weather History Date:

Saturday, October 13, 2012

  Actual Average Record
Temperature  
Mean Temperature 58 °F -  
Max Temperature 66 °F 64 °F 80 °F (2001)
Min Temperature 51 °F 52 °F 48 °F (2013)
Degree Days  
Heating Degree Days 6    
Growing Degree Days 8 (Base 50)    
Moisture  
Dew Point 49 °F    
Average Humidity 70    
Maximum Humidity 94    
Minimum Humidity 46    
Precipitation  
Precipitation 0.00 in - - ()
Sea Level Pressure  
Sea Level Pressure 29.99 in    
Wind  
Wind Speed 3 mph ()    
Max Wind Speed 8 mph    
Max Gust Speed -    
Visibility 5.8 miles    
Events      
Averages and records for this station are not official NWS values.
T = Trace of Precipitation, MM = Missing Value Source: Averaged Metar Reports

Daily Weather History Graph

Daily Weather History Graph

Search for Another Location

Airport or City:

Trip Planner

Search our weather history database for the weather conditions in past years. The results will help you decide how hot, cold, wet, or windy it might be!

Date:

Astronomy

Oct. 13, 2012 Rise Set
Actual Time 8:18 AM CEST 7:26 PM CEST
Civil Twilight 7:50 AM CEST 7:55 PM CEST
Nautical Twilight 7:17 AM CEST 8:28 PM CEST
Astronomical Twilight 6:44 AM CEST 9:01 PM CEST
Moon 5:49 AM CEST (10/13) 6:04 PM CEST (10/13)
Length of Visible Light 12h 05m
Length of Day
11h 08m
Waning Crescent, 6% of the Moon is Illuminated
Oct 13
Waning Crescent
Oct 15
New
Oct 22
First Quarter
Oct 29
Full
Nov 7
Last Quarter

Hourly Weather History & Observations

Time (CEST) Temp. Dew Point Humidity Pressure Visibility Wind Dir Wind Speed Gust Speed Precip Events Conditions
5:30 AM 51.8 °F 50.0 °F 94% 30.01 in 4.3 mi Variable 2.3 mph - N/A   Unknown
6:00 AM 51.8 °F 48.2 °F 88% 30.01 in 3.7 mi Variable 2.3 mph - N/A   Unknown
7:00 AM 51.8 °F 48.2 °F 88% 30.01 in 5.0 mi South 3.5 mph - N/A   Mostly Cloudy
7:30 AM 51.8 °F 48.2 °F 88% 30.01 in 5.0 mi South 5.8 mph - N/A   Mostly Cloudy
8:00 AM 51.8 °F 48.2 °F 88% 30.01 in 6.2 mi SSE 4.6 mph - N/A   Scattered Clouds
8:30 AM 51.8 °F 48.2 °F 88% 30.01 in 6.2 mi SSE 3.5 mph - N/A   Scattered Clouds
9:00 AM 51.8 °F 48.2 °F 88% 30.01 in 6.2 mi SSE 5.8 mph - N/A   Mostly Cloudy
9:30 AM 51.8 °F 48.2 °F 88% 30.01 in 6.2 mi SSE 4.6 mph - N/A   Mostly Cloudy
10:30 AM 55.4 °F 48.2 °F 77% 30.04 in 6.2 mi South 5.8 mph - N/A   Mostly Cloudy
11:00 AM 57.2 °F 48.2 °F 72% 30.04 in 6.2 mi South 8.1 mph - N/A   Mostly Cloudy
12:30 PM 62.6 °F 50.0 °F 63% 30.04 in 6.2 mi Variable 2.3 mph - N/A   Scattered Clouds
1:00 PM 64.4 °F 48.2 °F 56% 30.04 in 6.2 mi SW 3.5 mph - N/A   Scattered Clouds
1:30 PM 66.2 °F 48.2 °F 52% 30.01 in - SSW 4.6 mph - N/A   Clear
2:00 PM 66.2 °F 44.6 °F 46% 30.01 in - Variable 4.6 mph - N/A   Clear
2:30 PM 66.2 °F 46.4 °F 49% 30.01 in - Variable 3.5 mph - N/A   Clear
3:00 PM 66.2 °F 44.6 °F 46% 30.01 in - Variable 2.3 mph - N/A   Clear
3:30 PM 66.2 °F 48.2 °F 52% 30.01 in 6.2 mi NNW 3.5 mph - N/A   Partly Cloudy
4:00 PM 66.2 °F 50.0 °F 56% 29.98 in 6.2 mi Variable 2.3 mph - N/A   Partly Cloudy
4:30 PM 64.4 °F 50.0 °F 59% 29.98 in 6.2 mi Variable 4.6 mph - N/A   Partly Cloudy
5:00 PM 66.2 °F 50.0 °F 56% 29.98 in 6.2 mi Variable 1.2 mph - N/A   Partly Cloudy
5:30 PM 66.2 °F 50.0 °F 56% 29.95 in 6.2 mi Variable 1.2 mph - N/A   Partly Cloudy
6:00 PM 64.4 °F 51.8 °F 64% 29.95 in 6.2 mi Variable 2.3 mph - N/A   Partly Cloudy
6:30 PM 64.4 °F 50.0 °F 59% 29.95 in - Variable 2.3 mph - N/A   Clear
7:00 PM 62.6 °F 51.8 °F 68% 29.95 in - Variable 1.2 mph - N/A   Clear
7:30 PM 62.6 °F 51.8 °F 68% 29.95 in - Variable 1.2 mph - N/A   Clear
8:00 PM 59.0 °F 53.6 °F 82% 29.92 in - Variable 1.2 mph - N/A   Clear
8:30 PM 57.2 °F 53.6 °F 88% 29.95 in - Calm Calm - N/A   Clear
9:00 PM 57.2 °F 51.8 °F 82% 29.92 in - Calm Calm - N/A   Clear
9:30 PM 57.2 °F 51.8 °F 82% 29.92 in - Variable 1.2 mph - N/A   Clear